Hourly Data Report for March 25, 2020

All times are specified in Local Standard Time (LST). Add 1 hour to adjust for Daylight Saving Time where and when it is observed.

OTTAWA INTL A
ONTARIO
Current Station Operator: NAVCAN

45°19'00.000" N
75°40'00.000" W
114.90 m
6106001
71628
YOW

Download Data

Hourly Data (March 2020)
Hourly Data Report for March 25, 2020
TIME Temp Definition
°C
Dew Point Definition
°C
Rel Hum Definition
%
Wind Dir Definition
10's deg

Wind Spd Definition
km/h
Visibility Definition
km
Stn Press Definition
kPa
Hmdx Definition


Wind Chill Definition


Weather Definition


00:00 -1.4 -2.3 94 15 8 24.1 100.72   -4 LegendNANA
01:00 -2.3 -3.1 94 16 9 24.1 100.76   -6 Clear
02:00 -2.5 -3.1 96 14 7 24.1 100.70   -5 LegendNANA
03:00 -3.4 -4.0 96 5 9 24.1 100.65   -7 LegendNANA
04:00 -3.5 -4.0 96 4 12 24.1 100.63   -8 Clear
05:00 -3.6 -4.1 96 5 13 24.1 100.62   -8 LegendNANA
06:00 -2.5 -3.0 96 7 14 16.1 100.60   -7 LegendNANA
07:00 -2.0 -2.6 96 7 12 24.1 100.59   -6 Mostly Cloudy
08:00 -1.1 -1.8 95 7 15 24.1 100.57   -6 LegendNANA
09:00 1.2 -0.5 88 8 10 24.1 100.57     LegendNANA
10:00 3.1 -0.8 76 11 16 24.1 100.53     Mostly Cloudy
11:00 4.0 -0.7 71 8 11 24.1 100.48     LegendNANA
12:00 4.7 -1.6 64 9 9 24.1 100.40     LegendNANA
13:00 5.2 -0.5 67 11 12 24.1 100.37     Mostly Cloudy
14:00 4.6 -1.0 67 15 6 24.1 100.35     LegendNANA
15:00 4.4 0.0 73 9 9 24.1 100.31     LegendNANA
16:00 4.2 -0.1 74 9 10 24.1 100.29     Cloudy
17:00 3.8 -0.1 76 9 13 24.1 100.28     LegendNANA
18:00 3.4 0.2 79 8 11 24.1 100.26     LegendNANA
19:00 3.0 0.3 82 8 9 24.1 100.25     Cloudy
20:00 2.8 0.6 85 9 8 24.1 100.25     LegendNANA
21:00 2.8 1.1 89 12 11 24.1 100.23     LegendNANA
22:00 2.3 0.8 90 13 10 24.1 100.19     Mostly Cloudy
23:00 1.7 0.9 94 12 7 24.1 100.15     LegendNANA

Notes on Data Quality.

Legend

  • E = Estimated
  • M = Missing
  • NA = Not Available*
  • [empty] = Indicates an unobserved value
Date modified: